Location: *
(46.4000°N, 12.6667°E)
Time: 07:58:33
(UTC+00:00)

Envisat - Pass Details

Date: 05 December 2021
Orbit: 764 x 766 km, 98.2° (Epoch: 26 January)

Event Time Altitude Azimuth Distance (km) Brightness Sun altitude
Rises 03:14:41 0° 24° (NNE) 3,244 6.6 -33.9°
Reaches altitude 10° 03:17:24 10° 38° (NE) 2,313 5.9 -33.5°
Maximum altitude 03:21:35 25° 93° (E) 1,505 5.1 -32.8°
Drops below altitude 10° 03:25:44 10° 148° (SSE) 2,297 5.8 -32.0°
Sets 03:28:24 0° 162° (SSE) 3,218 6.4 -31.6°
